Showing default

COSMOS 2213, 22184

Orbit data source: Space-Track

COSMOS 2213, 22184 is a payload satellite owned by VKS (CIS) in LEO that was launched on Tue, 20 Oct 1992 UTC via a TSIKLON-3 launch vehicle from the Plesetsk Missile And Space Complex (PKMTR). Payloads include a variety of satellites, spacecraft, and rockets equipped with specific instruments for various scientific and technological missions. These include communications satellites like Starlink; space stations such as the ISS; scientific satellites like the Hubble; Earth observation satellites from companies like Planet Labs, Umbra, and HawkEye 360; GPS; miniature CubeSats for education and research; and military/defense satellites.

Loading next visibility...
COSMOS 2213 details
Identifier
22184, 1992-068C
Orbit
LEO
Last TLE update14 hours ago
Origin
Flag of CISVKS (CIS)
ManufacturerNPO PM
MissionDefense Communications
Bus & MotorSTRELA-3, Unknown motor
Mass225 kg wet, 225 kg dry
Launch date (UTC)
1992-10-20 (32 years ago)
Launch vehicle
TSIKLON-3
Launch site
Plesetsk Missile And Space Complex (PKMTR)
Object type
Payload
Rocket body
Debris
Shape & HBRCyl, 1.6 m
Radar Cross Section1.257 m², Large (>1 m²)

Expand to show TLE details & history

TLE from 14 hours ago
0 COSMOS 2213
1 22184U 92068C   24325.88372784  .00000028  00000-0  94107-4 0  9990
2 22184  82.6010 351.9798 0002897  13.8910 102.2344 12.62591396478601
Epoch: 2024-11-20T21:12Z
Definitive object data (Epoch: 2024-11-20T21:12:34.085Z)
Latitude62.97122°
Longitude138.79197°
Altitude1,423.529 km
Speed7.155 km/s
True Right ascension10h 29m 13s
True Declination62° 50' 37"
Sunlit
Object was in daylight at TLE epoch
Visualization TLE readout
Latitude-82.61315°
Longitude-112.27704°
Altitude1,441.139 km
Speed7.141 km/s
Apparent Right ascension19h 57m 45s
Apparent Declination-64° 10' 52"
Sunlit
Object is in daylight
Visualization observer readout
Local Sidereal Time08:23:38
Azimuth173.219° S
Elevation-65.44°
Doppler factor1
Orbital elements
Apogee altitude1,411.842 km
Perigee altitude1,407.33 km
Semi-major axis7,787.723 km
Eccentricity0.0002897
Inclination82.601°
RAAN351.9798°
Arg. of periapsis13.891°
True anomaly102.26684°
Mean anomaly102.2344°
Eccentric anomaly102.25062°
Mean motion3.15811 °/min
BSTAR0.000094107
Orbital period113.99 mins
Loading maneuver chart data...
Loading historical data...
Loading historical data...
Loading historical data...
Loading historical data...
Loading historical data...
Loading historical data...
Loading historical data...

COSMOS 2213 Visibility forecast

Observer location: undefined°, undefined

Span
Click to sort rows by Start time (UTC) header in descending order
Start Az.
Max El. time (UTC)
Max El. Az.
Max El.
End time (UTC)
End Az.
13 mins2024-11-21 12:25:17.891Z15.424° NNE2024-11-21 12:31:17.891Z65.118° ENE24.942°2024-11-21 12:38:17.891Z124.137° SE
14 mins2024-11-21 14:20:17.891Z343.217° N2024-11-21 14:27:17.891Z262.924° W41.072°2024-11-21 14:34:17.891Z192.95° SSW
11 mins2024-11-22 01:15:17.891Z127.085° SE2024-11-22 01:20:17.891Z81.613° E24.525°2024-11-22 01:26:17.891Z31.992° NE
14 mins2024-11-22 03:08:17.891Z206.263° SW2024-11-22 03:14:17.891Z273.479° WNW40.869°2024-11-22 03:22:17.891Z359.993° N
|